Location: Unspecified
(0.0000°N, 0.0000°E)
Time: 03:06:46
(UTC+00:00)

STARLINK-2026 - Pass Details

Date: 24 February 2021
Orbit: 316 x 318 km, 53.1° (Epoch: 23 February)

Event Time Altitude Azimuth Distance (km) Brightness Sun altitude
Exits shadow 05:19:54 - 349° (NNW) 1,644 5.8 -13.1°
Reaches altitude 10° 05:21:03 10° 358° (N) 1,221 5.3 -12.9°
Maximum altitude 05:23:20 24° 56° (NE) 717 4.8 -12.3°
Drops below altitude 10° 05:25:38 10° 114° (ESE) 1,229 6.8 -11.7°
Sets 05:27:48 0° 128° (SE) 2,065 7.7 -11.2°
